Flag for Germany Weather past 2 weeks in Wolfsburg, Lower Saxony, Germany

Now
36 °F

Overcast.


Feels Like: 27 °F
Forecast: 32 / 35 °F
Wind: 14 mph from Southwest

Location: Braunschweig

Current Time: Jan 29, 2015 at 9:35:21 PM

Latest Report: Jan 29, 2015 at 6:57 PM


Visibility: N/A

Pressure: 28.94 "Hg

Humidity: 87%

Dew point: 32 °F

Location of WolfsburgLocation

Historic Weather in Wolfsburg — Graph

°F

Wolfsburg temperature yesterday

Maximum temperature yesterday: 41 °F (at 11:50 AM)
Minimum temperature yesterday: 37 °F (at 6:20 AM)
Average temperature yesterday: 40 °F

Past Weeks' High & Low Weather Summary

 TemperatureHumidityPressure
High52 °F (Jan 15, 6:50 PM)100% (Jan 17, 8:50 AM)30.30 "Hg (Jan 17, 8:50 AM)
Low23 °F (Jan 21, 6:50 AM)57% (Jan 16, 12:50 PM)28.94 "Hg (Jan 29, 6:20 PM)
Average36 °F87%29.89 "Hg
* Reported Jan 14 6:20 PM — Jan 29 6:57 PM, Wolfsburg, Weather by CustomWeather, © 2014

Note: Actual official high and low records may vary slightly from our data, if they occured in-between our weather recording intervals... More about our weather records

Advertising

Wolfsburg weather history for previous 24 hours

 ConditionsComfort  
Time TempWeatherWind HumidityBarometerVisibility
6:57 PM
Jan 29
36 °FOvercast.14 mph87%28.94 "HgN/A
6:50 PM36 °FPartly cloudy.14 mph81%28.94 "HgN/A
6:20 PM36 °FClear.14 mph87%28.94 "Hg10 mi
5:50 PM36 °FPartly cloudy.14 mph87%28.97 "HgN/A
5:20 PM36 °FPassing clouds.15 mph81%28.97 "HgN/A
4:50 PM37 °FPassing clouds.14 mph75%29.00 "HgN/A
4:20 PM37 °FScattered clouds.17 mph75%29.00 "HgN/A
3:50 PM37 °FScattered showers. Partly sunny.18 mph75%29.03 "HgN/A
3:20 PM39 °FScattered showers. Broken clouds.18 mph70%29.03 "HgN/A
2:50 PM39 °FScattered showers. Cloudy.21 mph70%29.06 "HgN/A
2:20 PM39 °FScattered showers. Mostly cloudy.17 mph70%29.06 "HgN/A
2:00 PM39 °FMostly cloudy.15 mph70%29.06 "HgN/A
1:20 PM37 °FPartly sunny.15 mph75%29.09 "HgN/A
12:50 PM39 °FPartly sunny.17 mph70%29.12 "HgN/A
12:20 PM39 °FScattered clouds.14 mph70%29.12 "HgN/A
11:50 AM37 °FSnow flurries. Partly sunny.13 mph75%29.15 "HgN/A
11:20 AM36 °FSnow showers. Broken clouds.15 mph87%29.15 "Hg2 mi
11:00 AM36 °FSnow flurries. Partly sunny.18 mph87%29.18 "Hg6 mi
10:50 AM37 °FSnow showers. Partly sunny.17 mph70%29.18 "Hg2 mi
10:20 AM37 °FPartly sunny.15 mph65%29.18 "HgN/A
9:50 AM37 °FPartly sunny.17 mph65%29.18 "HgN/A
9:20 AM36 °FPartly sunny.16 mph70%29.21 "HgN/A
8:50 AM36 °FScattered clouds.17 mph70%29.21 "HgN/A
8:20 AM36 °FScattered clouds.15 mph70%29.24 "HgN/A
7:50 AM37 °FPassing clouds.15 mph65%29.24 "HgN/A
7:20 AM36 °FPassing clouds.14 mph75%29.24 "HgN/A
6:50 AM36 °FPassing clouds.14 mph75%29.24 "HgN/A
10:20 PM
Jan 28
37 °FOvercast.16 mph93%29.30 "HgN/A
9:50 PM37 °FMostly cloudy.17 mph93%29.30 "HgN/A
9:20 PM37 °FRain. Overcast.21 mph100%29.30 "HgN/A
Weather by CustomWeather, © 2014

See weather overviewHow to use our weather pages